SCP
0 0 0 0 0 0 0 0 0 0 0 0 0 0 0 0 0 0 0 0 0 0 0 0 0 0 0 0 0 0 0 0
0 0 0 0 0 0 0 0 0 0 0 0 0 0 0 0 0 0 0 0 0 0 0 0 0 0 0 0 -0 -0 -0 -0
0 0 0 0 0 0 0 0 0 0 0 0 0 0 0 0 0 0 0 0 0 0 0 0 0 0 0 0 -0 -0 -0 -0
0 0 0 0 0 0 0 0 0 0 0 0 0 0 0 0 0 0 0 0 0 0 0 0 0 0 0 0 0 0 0 0
0 0 0 0 0 0 0 0 0 0 0 0 0 0 0 0 0 0 0 0 0 0 0 0 0 0 0 0 0 0 0 0
0 0 0 0 0 0 0 0 0 0 0 0 0 0 0 0 0 0 0 0 0 0 0 0 0 0 0 0 0 0 0 0
0 0 0 0 0 0 0 0 0 0 0 0 0 0 0 0 0 0 0 0 0 0 0 0 0 0 0 0 0 0 0 0
0 0 0 0 0 0 0 0 0 0 0 0 0 0 0 0 0 0 0 0 0 0 0 0 0 -0 0 0 0 0 0 0
0 0 0 0 0 0 0 0 0 0 0 0 0 0 0 0 0 0 0 0 0 0 0 0 0 0 0 0 0 0 0 0
0 0 0 0 0 0 0 0 0 0 0 0 0 0 0 0 0 0 0 0 0 0 0 0 0 0 0 0 0 0 0 0
0 0 0 0 0 0 0 0 0 0 0 0 0 0 0 0 0 0 0 0 0 0 0 0 0 0 0 0 0 0 0 0
0 0 0 0 0 0 0 0 0 0 0 0 0 0 0 0 0 0 0 0 0 0 0 0 0 0 0 0 0 0 0 0
0 0 0 0 0 0 0 0 0 0 0 0 0 0 0 0 0 0 0 0 0 0 0 0 0 0 0 0 0 0 0 0
0 0 0 0 0 0 0 0 0 0 0 0 0 0 0 0 0 0 0 0 0 0 0 0 0 0 0 0 0 0 0 0
0 0 0 0 0 0 0 0 0 0 0 0 0 0 0 0 0 0 0 0 0 0 0 0 0 0 0 0 0 0 0 0
0 0 0 0 0 0 0 0 0 0 0 0 0 0 0 0 0 0 0 0 0 0 0 0 0 0 0 0 0 0 0 0
0 0 0 0 0 0 0 0 0 0 0 0 0 0 0 0 0 0 0 0 0 0 0 0 0 0 0 0 0 0 0 0
0 0 0 0 0 0 0 0 0 0 0 0 0 0 0 0 0 0 0 0 0 0 0 0 0 0 0 0 0 0 0 0
0 0 0 0 0 0 0 0 0 0 0 0 0 0 0 0 0 0 0 0 0 0 0 0 0 0 0 0 0 0 0 0
0 0 0 0 0 0 0 0 0 0 0 0 0 0 0 0 0 0 0 0 0 0 0 0 0 0 0 0 0 0 0 0
Wind_Speed_500mb
40 32 26 22 16 15 13 11 10 9 6 2 5 9 11 14 18 22 25 27 28 29 32 36 41 45 48 53 56 60 61 62
43 34 27 22 19 19 19 17 14 10 7 4 6 10 14 19 24 28 31 32 35 38 41 45 49 54 59 64 70 73 74 73
47 41 34 26 26 25 25 22 19 16 11 8 9 13 18 23 27 29 32 36 38 42 47 51 54 59 66 71 76 79 81 82
52 50 42 35 33 32 31 29 28 22 17 17 17 20 23 26 29 34 38 41 44 47 52 56 61 65 68 72 73 74 74 76
54 51 46 43 39 37 38 38 34 27 25 24 26 29 30 31 35 40 44 46 47 53 56 60 65 68 70 71 73 74 76 77
45 45 52 49 47 44 43 43 38 33 31 32 38 39 38 35 39 44 47 49 52 57 59 63 65 67 68 69 72 75 78 79
38 38 43 51 54 48 48 46 42 39 39 43 48 48 44 43 43 48 53 55 57 61 64 66 66 67 68 71 75 76 80 84
29 31 38 46 49 49 45 44 46 47 50 53 53 51 48 47 48 51 56 59 61 64 65 66 67 68 70 72 76 77 77 78
30 35 39 38 41 39 41 46 49 51 55 54 53 54 52 51 51 53 57 60 63 65 65 66 67 69 71 72 74 76 75 72
28 32 33 34 36 38 37 40 46 51 51 53 56 57 56 54 53 56 59 63 65 66 66 67 65 66 69 73 73 71 70 67
27 30 32 36 34 32 37 44 51 49 53 59 60 59 57 55 55 58 63 72 67 66 64 64 65 64 66 67 65 67 67 67
32 35 35 33 30 41 44 49 48 52 55 60 62 59 57 56 57 62 66 65 65 66 64 62 62 62 61 60 53 56 62 67
39 44 42 36 41 48 53 53 56 58 59 60 56 55 57 58 60 65 64 65 67 67 65 61 60 59 57 54 41 46 56 65
41 46 51 49 51 56 57 61 58 57 58 54 52 54 56 59 62 61 57 63 65 63 63 63 59 57 51 45 48 47 53 63
39 48 54 55 57 58 57 58 56 56 52 51 53 54 55 60 59 58 57 59 60 60 61 63 62 56 50 51 59 58 61 71
45 48 46 47 51 53 51 52 53 51 50 51 52 53 56 56 54 54 54 56 57 56 58 61 60 53 44 46 50 53 59 62
49 47 46 47 48 45 48 50 50 50 50 50 53 55 56 55 53 51 53 51 49 50 47 48 46 42 39 42 43 49 54 52
44 44 44 43 42 44 45 45 46 49 51 54 56 56 54 53 56 60 47 45 46 48 49 43 42 36 37 37 39 41 43 44
43 40 38 38 36 40 42 44 48 51 53 53 52 53 54 56 57 58 57 59 47 38 45 40 36 37 31 34 40 38 35 38
37 36 35 33 36 40 44 45 46 49 48 48 50 52 55 57 57 56 55 54 53 43 33 40 37 33 33 33 36 41 41 41
Wind_Direction_500mb
184 182 179 178 180 187 179 180 172 166 147 75 36 16 12 6 354 350 346 341 336 333 332 332 332 332 332 330 327 325 322 320
195 195 197 197 200 206 203 197 196 197 223 272 335 349 348 343 340 337 335 331 329 329 329 329 329 330 329 328 326 324 321 319
206 209 214 217 216 215 214 215 217 228 240 269 300 315 319 320 321 322 322 322 322 324 326 327 327 327 326 325 324 322 320 319
215 220 226 228 224 222 223 221 223 226 246 266 278 292 302 309 315 319 320 319 320 322 323 324 324 324 323 323 321 319 316 314
222 229 238 238 232 228 224 223 228 238 253 266 278 286 292 304 314 317 317 316 316 319 320 321 321 322 322 322 319 317 315 313
227 243 245 238 234 230 225 227 233 243 257 272 278 279 282 294 304 309 313 313 314 317 317 319 320 322 322 320 318 317 315 313
245 243 244 240 236 233 229 228 235 247 259 269 273 274 275 282 295 305 311 310 310 314 316 318 320 322 322 321 319 317 315 314
238 245 248 247 235 231 230 232 241 252 261 267 270 271 273 279 291 298 305 306 309 312 314 317 320 322 323 321 318 317 316 314
245 245 243 239 226 224 230 238 248 258 264 269 273 270 271 275 285 293 300 303 305 309 313 316 321 322 321 319 318 317 315 315
243 242 238 226 222 229 234 249 261 265 271 274 275 269 269 275 285 293 297 301 303 307 311 315 318 319 320 321 318 315 314 319
238 224 221 220 219 235 262 265 264 269 272 270 266 266 268 276 284 291 298 301 302 306 310 314 317 320 320 319 317 317 319 324
244 242 235 221 249 269 265 263 262 263 266 265 264 266 271 279 287 294 300 298 302 306 310 314 316 319 319 318 318 320 321 315
240 237 231 243 267 267 265 262 259 258 261 262 264 269 276 283 291 297 295 296 299 303 306 310 314 318 319 324 318 315 311 314
240 243 242 251 264 270 270 260 257 259 261 264 269 273 278 285 293 294 293 295 299 302 306 310 313 316 322 326 329 322 319 314
238 246 251 260 270 272 265 257 257 260 264 270 273 277 283 290 292 291 292 295 299 303 305 307 311 321 324 328 332 328 324 311
247 252 254 263 268 268 261 257 260 265 270 273 277 282 288 289 289 289 292 295 298 302 306 310 311 317 320 316 319 320 310 313
250 248 260 264 265 259 258 261 265 269 273 278 282 287 288 286 284 286 292 295 297 299 295 292 293 302 308 311 312 306 309 322
247 255 257 259 256 256 258 261 266 271 276 279 284 285 283 284 288 292 287 289 293 294 290 286 296 298 305 307 308 307 319 322
250 250 253 252 253 256 260 263 267 271 275 279 279 278 281 284 286 289 293 296 297 287 287 290 289 296 303 302 308 314 314 323
246 249 250 250 256 260 261 263 267 271 273 274 275 277 280 282 285 288 291 293 294 291 281 287 291 293 296 299 307 313 321 327
Wind_Speed_850mb
40 32 26 22 16 15 13 11 10 9 6 2 5 9 11 14 18 22 25 27 28 29 32 36 41 45 48 53 56 60 61 62
43 34 27 22 19 19 19 17 14 10 7 4 6 10 14 19 24 28 31 32 35 38 41 45 49 54 59 64 70 73 74 73
47 41 34 26 26 25 25 22 19 16 11 8 9 13 18 23 27 29 32 36 38 42 47 51 54 59 66 71 76 79 81 82
52 50 42 35 33 32 31 29 28 22 17 17 17 20 23 26 29 34 38 41 44 47 52 56 61 65 68 72 73 74 74 76
54 51 46 43 39 37 38 38 34 27 25 24 26 29 30 31 35 40 44 46 47 53 56 60 65 68 70 71 73 74 76 77
45 45 52 49 47 44 43 43 38 33 31 32 38 39 38 35 39 44 47 49 52 57 59 63 65 67 68 69 72 75 78 79
38 38 43 51 54 48 48 46 42 39 39 43 48 48 44 43 43 48 53 55 57 61 64 66 66 67 68 71 75 76 80 84
29 31 38 46 49 49 45 44 46 47 50 53 53 51 48 47 48 51 56 59 61 64 65 66 67 68 70 72 76 77 77 78
30 35 39 38 41 39 41 46 49 51 55 54 53 54 52 51 51 53 57 60 63 65 65 66 67 69 71 72 74 76 75 72
28 32 33 34 36 38 37 40 46 51 51 53 56 57 56 54 53 56 59 63 65 66 66 67 65 66 69 73 73 71 70 67
27 30 32 36 34 32 37 44 51 49 53 59 60 59 57 55 55 58 63 72 67 66 64 64 65 64 66 67 65 67 67 67
32 35 35 33 30 41 44 49 48 52 55 60 62 59 57 56 57 62 66 65 65 66 64 62 62 62 61 60 53 56 62 67
39 44 42 36 41 48 53 53 56 58 59 60 56 55 57 58 60 65 64 65 67 67 65 61 60 59 57 54 41 46 56 65
41 46 51 49 51 56 57 61 58 57 58 54 52 54 56 59 62 61 57 63 65 63 63 63 59 57 51 45 48 47 53 63
39 48 54 55 57 58 57 58 56 56 52 51 53 54 55 60 59 58 57 59 60 60 61 63 62 56 50 51 59 58 61 71
45 48 46 47 51 53 51 52 53 51 50 51 52 53 56 56 54 54 54 56 57 56 58 61 60 53 44 46 50 53 59 62
49 47 46 47 48 45 48 50 50 50 50 50 53 55 56 55 53 51 53 51 49 50 47 48 46 42 39 42 43 49 54 52
44 44 44 43 42 44 45 45 46 49 51 54 56 56 54 53 56 60 47 45 46 48 49 43 42 36 37 37 39 41 43 44
43 40 38 38 36 40 42 44 48 51 53 53 52 53 54 56 57 58 57 59 47 38 45 40 36 37 31 34 40 38 35 38
37 36 35 33 36 40 44 45 46 49 48 48 50 52 55 57 57 56 55 54 53 43 33 40 37 33 33 33 36 41 41 41
Wind_Direction_850mb
184 182 179 178 180 187 179 180 172 166 147 75 36 16 12 6 354 350 346 341 336 333 332 332 332 332 332 330 327 325 322 320
195 195 197 197 200 206 203 197 196 197 223 272 335 349 348 343 340 337 335 331 329 329 329 329 329 330 329 328 326 324 321 319
206 209 214 217 216 215 214 215 217 228 240 269 300 315 319 320 321 322 322 322 322 324 326 327 327 327 326 325 324 322 320 319
215 220 226 228 224 222 223 221 223 226 246 266 278 292 302 309 315 319 320 319 320 322 323 324 324 324 323 323 321 319 316 314
222 229 238 238 232 228 224 223 228 238 253 266 278 286 292 304 314 317 317 316 316 319 320 321 321 322 322 322 319 317 315 313
227 243 245 238 234 230 225 227 233 243 257 272 278 279 282 294 304 309 313 313 314 317 317 319 320 322 322 320 318 317 315 313
245 243 244 240 236 233 229 228 235 247 259 269 273 274 275 282 295 305 311 310 310 314 316 318 320 322 322 321 319 317 315 314
238 245 248 247 235 231 230 232 241 252 261 267 270 271 273 279 291 298 305 306 309 312 314 317 320 322 323 321 318 317 316 314
245 245 243 239 226 224 230 238 248 258 264 269 273 270 271 275 285 293 300 303 305 309 313 316 321 322 321 319 318 317 315 315
243 242 238 226 222 229 234 249 261 265 271 274 275 269 269 275 285 293 297 301 303 307 311 315 318 319 320 321 318 315 314 319
238 224 221 220 219 235 262 265 264 269 272 270 266 266 268 276 284 291 298 301 302 306 310 314 317 320 320 319 317 317 319 324
244 242 235 221 249 269 265 263 262 263 266 265 264 266 271 279 287 294 300 298 302 306 310 314 316 319 319 318 318 320 321 315
240 237 231 243 267 267 265 262 259 258 261 262 264 269 276 283 291 297 295 296 299 303 306 310 314 318 319 324 318 315 311 314
240 243 242 251 264 270 270 260 257 259 261 264 269 273 278 285 293 294 293 295 299 302 306 310 313 316 322 326 329 322 319 314
238 246 251 260 270 272 265 257 257 260 264 270 273 277 283 290 292 291 292 295 299 303 305 307 311 321 324 328 332 328 324 311
247 252 254 263 268 268 261 257 260 265 270 273 277 282 288 289 289 289 292 295 298 302 306 310 311 317 320 316 319 320 310 313
250 248 260 264 265 259 258 261 265 269 273 278 282 287 288 286 284 286 292 295 297 299 295 292 293 302 308 311 312 306 309 322
247 255 257 259 256 256 258 261 266 271 276 279 284 285 283 284 288 292 287 289 293 294 290 286 296 298 305 307 308 307 319 322
250 250 253 252 253 256 260 263 267 271 275 279 279 278 281 284 286 289 293 296 297 287 287 290 289 296 303 302 308 314 314 323
246 249 250 250 256 260 261 263 267 271 273 274 275 277 280 282 285 288 291 293 294 291 281 287 291 293 296 299 307 313 321 327